Tracking 19638 objects as of 20-May-2019
HD Live streaming from Space Station
objects crossing your sky now

FLOCK 3P 31

Track FLOCK 3P 31 now!
10-day predictions
FLOCK 3P 31 is classified as:


NORAD ID: 42049
Int'l Code: 2017-008DF
Perigee: 492.5 km
Apogee: 501.3 km
Inclination: 97.4 °
Period: 94.4 minutes
Semi major axis: 6867 km
RCS: Unknown
Launch date: February 15, 2017
Source: United States (US)
Launch site: SRIHARIKOTA (SRI)
aabbcc
Your satellite tracking list
Your tracking list is empty




NASA's NSSDC Master Catalog

Two Line Element Set (TLE):
1 42049U 17008DF  19140.24485147  .00001119  00000-0  47250-4 0  9999
2 42049  97.4082 207.5540 0006430 239.3826 120.6778 15.25334518124094
Source of the keplerian elements: AFSPC